User: anonymous   Login
Location: Unspecified
(0.0000°N, 0.0000°E)
Time: 10:33:31
(UTC+00:00)
Language:

SICRAL 2 - Orbit

View from above orbital plane
View from above orbital plane
View from above satellite
View from above satellite

Ground track
Ground track

The orbit data is extracted from the following two-line orbital elements,

1 40614U 15022B   18196.22480624 0.00000000  00000-0  00000-0 0    01
2 40614   0.0330  50.9699 0003453 343.0894  16.9003  1.00270000    06
Epoch (UTC): 15 July 2018 05:23:43
Eccentricity: 0.0003453
inclination: 0.0330°
perigee height: 35772 km
apogee height: 35801 km
right ascension of ascending node: 50.9699°
argument of perigee: 343.0894°
revolutions per day: 1.00270000
mean anomaly at epoch: 16.9003°
orbit number at epoch: 0

The dashed part of the orbit path shows where the satellite is in the earth's shadow,  

DLR